Weather History for Corning, AR

Change the Weather History Date:

Tuesday, March 11, 2014

  Actual Average (KARG) Record (KARG)
Temperature  
Mean Temperature 58 °F -  
Max Temperature 73 °F 53 °F 78 °F (2006)
Min Temperature 44 °F 36 °F 21 °F (1998)
Degree Days  
Heating Degree Days 6    
Growing Degree Days 8 (Base 50)    
Moisture  
Dew Point 51 °F    
Average Humidity 75    
Maximum Humidity 93    
Minimum Humidity 60    
Precipitation  
Precipitation 0.00 in - - ()
Sea Level Pressure  
Sea Level Pressure 29.68 in    
Wind  
Wind Speed 12 mph (SSW)    
Max Wind Speed 23 mph    
Max Gust Speed 30 mph    
Visibility 10 miles    
Events      
Averages and records for this station are not official NWS values.
T = Trace of Precipitation, MM = Missing Value Source: NWS Daily Summary

Daily Weather History Graph

Daily Weather History Graph

Search for Another Location

Airport:

Trip Planner

Search our weather history database for the weather conditions in past years. The results will help you decide how hot, cold, wet, or windy it might be!

Date:

Astronomy

Mar. 11, 2014 Rise Set
Actual Time 7:19 AM CDT 7:06 PM CDT
Civil Twilight 6:53 AM CDT 7:32 PM CDT
Nautical Twilight 6:23 AM CDT 8:02 PM CDT
Astronomical Twilight 5:53 AM CDT 8:32 PM CDT
Moon 2:48 PM CDT (3/11) 4:06 AM CDT (3/11)
Length of Visible Light 12h 38m
Length of Day
11h 47m
Waxing Gibbous, 78% of the Moon is Illuminated
Mar 11
Waxing Gibbous
Mar 16
Full
Mar 23
Last Quarter
Mar 30
New
Apr 7
First Quarter

Hourly Weather History & Observations

Time (CDT) Temp. Windchill Dew Point Humidity Pressure Visibility Wind Dir Wind Speed Gust Speed Precip Events Conditions
12:15 AM 53.6 °F - 44.6 °F 72% 29.82 in 10.0 mi SSW 11.5 mph - N/A   Clear
12:35 AM 51.8 °F - 44.6 °F 76% 29.82 in 10.0 mi SSW 13.8 mph - N/A   Clear
12:55 AM 51.8 °F - 44.6 °F 76% 29.82 in 10.0 mi SSW 11.5 mph - N/A   Clear
1:15 AM 51.8 °F - 44.6 °F 76% 29.82 in 10.0 mi SSW 11.5 mph - N/A   Clear
1:35 AM 50.0 °F - 44.6 °F 82% 29.81 in 10.0 mi SSW 11.5 mph - N/A   Clear
1:55 AM 51.8 °F - 42.8 °F 71% 29.81 in 10.0 mi SW 11.5 mph - N/A   Clear
2:15 AM 48.2 °F - 42.8 °F 82% 29.80 in 10.0 mi SSW 10.4 mph - N/A   Clear
2:35 AM 48.2 °F - 42.8 °F 82% 29.80 in 10.0 mi SSW 9.2 mph - N/A   Clear
2:55 AM 48.2 °F - 42.8 °F 82% 29.80 in 10.0 mi SW 9.2 mph - N/A   Clear
3:15 AM 48.2 °F - 41.0 °F 76% 29.80 in 10.0 mi SW 10.4 mph - N/A   Clear
3:35 AM 46.4 °F 41.5 °F 41.0 °F 81% 29.79 in 10.0 mi SW 10.4 mph - N/A   Clear
3:55 AM 48.2 °F - 41.0 °F 76% 29.78 in 10.0 mi SW 10.4 mph - N/A   Clear
4:15 AM 44.6 °F 40.2 °F 41.0 °F 87% 29.77 in 10.0 mi SSW 8.1 mph - N/A   Clear
4:35 AM 44.6 °F 40.2 °F 41.0 °F 87% 29.77 in 10.0 mi SSW 8.1 mph - N/A   Clear
4:55 AM 44.6 °F 40.7 °F 41.0 °F 87% 29.77 in 10.0 mi SW 6.9 mph - N/A   Clear
5:15 AM 44.6 °F 40.2 °F 41.0 °F 87% 29.76 in 10.0 mi SSW 8.1 mph - N/A   Clear
5:35 AM 44.6 °F 40.7 °F 41.0 °F 87% 29.76 in 10.0 mi SSW 6.9 mph - N/A   Clear
5:55 AM 44.6 °F 41.4 °F 41.0 °F 87% 29.77 in 10.0 mi SSW 5.8 mph - N/A   Clear
6:15 AM 46.4 °F 43.5 °F 41.0 °F 81% 29.76 in 10.0 mi South 5.8 mph - N/A   Clear
6:35 AM 44.6 °F 40.7 °F 41.0 °F 87% 29.76 in 10.0 mi SSW 6.9 mph - N/A   Clear
6:55 AM 44.6 °F 42.2 °F 41.0 °F 87% 29.76 in 10.0 mi SSW 4.6 mph - N/A   Clear
7:15 AM 44.6 °F 41.4 °F 41.0 °F 87% 29.76 in 10.0 mi SSW 5.8 mph - N/A   Clear
7:35 AM 44.6 °F 41.4 °F 41.0 °F 87% 29.76 in 8.0 mi SW 5.8 mph - N/A   Clear
7:55 AM 44.6 °F 43.1 °F 41.0 °F 87% 29.77 in 8.0 mi SW 3.5 mph - N/A   Clear
8:15 AM 46.4 °F 44.3 °F 44.6 °F 93% 29.77 in 9.0 mi SW 4.6 mph - N/A   Clear
8:35 AM 48.2 °F - 44.6 °F 87% 29.77 in 9.0 mi Calm Calm - N/A   Clear
8:55 AM 50.0 °F - 46.4 °F 87% 29.77 in 9.0 mi Calm Calm - N/A   Clear
9:15 AM 53.6 °F - 46.4 °F 77% 29.77 in 10.0 mi Calm Calm - N/A   Clear
9:35 AM 55.4 °F - 46.4 °F 72% 29.75 in 9.0 mi SSW 5.8 mph - N/A   Clear
9:55 AM 57.2 °F - 48.2 °F 72% 29.74 in 10.0 mi South 6.9 mph - N/A   Clear
10:15 AM 59.0 °F - 48.2 °F 67% 29.74 in 10.0 mi SSW 6.9 mph - N/A   Clear
10:35 AM 60.8 °F - 48.2 °F 63% 29.73 in 10.0 mi SSW 9.2 mph - N/A   Clear
10:55 AM 62.6 °F - 50.0 °F 63% 29.73 in 10.0 mi SSW 11.5 mph - N/A   Clear
11:15 AM 62.6 °F - 50.0 °F 63% 29.73 in 10.0 mi South 11.5 mph 16.1 mph N/A   Clear
11:35 AM 64.4 °F - 53.6 °F 68% 29.73 in 10.0 mi SSW 11.5 mph - N/A   Clear
11:55 AM 66.2 °F - 53.6 °F 64% 29.73 in 10.0 mi SSW 15.0 mph - N/A   Clear
12:15 PM 66.2 °F - 55.4 °F 68% 29.72 in 10.0 mi SSW 17.3 mph - N/A   Clear
12:35 PM 68.0 °F - 57.2 °F 68% 29.71 in 10.0 mi SSW 17.3 mph - N/A   Clear
12:55 PM 68.0 °F - 57.2 °F 68% 29.70 in 10.0 mi SSW 16.1 mph - N/A   Clear
1:15 PM 68.0 °F - 57.2 °F 68% 29.67 in 10.0 mi SSW 17.3 mph - N/A   Clear
1:35 PM 69.8 °F - 57.2 °F 64% 29.66 in 10.0 mi SSW 16.1 mph 24.2 mph N/A   Clear
1:55 PM 71.6 °F - 57.2 °F 60% 29.64 in 10.0 mi SSW 18.4 mph - N/A   Clear
2:15 PM 71.6 °F - 59.0 °F 64% 29.63 in 10.0 mi SSW 19.6 mph 23.0 mph N/A   Clear
2:35 PM 71.6 °F - 59.0 °F 64% 29.62 in 10.0 mi SSW 23.0 mph 26.5 mph N/A   Clear
2:55 PM 71.6 °F - 59.0 °F 64% 29.61 in 10.0 mi South 15.0 mph 27.6 mph N/A   Clear
3:15 PM 73.4 °F - 59.0 °F 61% 29.61 in 10.0 mi South 21.9 mph 27.6 mph N/A   Clear
3:35 PM 71.6 °F - 59.0 °F 64% 29.61 in 10.0 mi SSW 21.9 mph 28.8 mph N/A   Clear
3:55 PM 73.4 °F - 59.0 °F 61% 29.60 in 10.0 mi SSW 20.7 mph 26.5 mph N/A   Clear
4:15 PM 71.6 °F - 59.0 °F 64% 29.60 in 10.0 mi SSW 21.9 mph - N/A   Clear
4:35 PM 71.6 °F - 59.0 °F 64% 29.59 in 10.0 mi South 18.4 mph 23.0 mph N/A   Clear
4:55 PM 71.6 °F - 59.0 °F 64% 29.59 in 10.0 mi South 19.6 mph 28.8 mph N/A   Clear
5:15 PM 71.6 °F - 57.2 °F 60% 29.58 in 10.0 mi South 21.9 mph 29.9 mph N/A   Clear
5:35 PM 71.6 °F - 57.2 °F 60% 29.57 in 10.0 mi SSW 20.7 mph - N/A   Clear
5:55 PM 71.6 °F - 59.0 °F 64% 29.57 in 10.0 mi South 16.1 mph 20.7 mph N/A   Clear
6:15 PM 69.8 °F - 57.2 °F 64% 29.56 in 10.0 mi South 12.7 mph 20.7 mph N/A   Clear
6:35 PM 68.0 °F - 59.0 °F 73% 29.57 in 10.0 mi South 12.7 mph - N/A   Clear
6:55 PM 68.0 °F - 57.2 °F 68% 29.56 in 10.0 mi South 15.0 mph - N/A   Clear
7:15 PM 66.2 °F - 57.2 °F 73% 29.57 in 10.0 mi South 12.7 mph - N/A   Clear
7:35 PM 66.2 °F - 57.2 °F 73% 29.57 in 10.0 mi South 12.7 mph - N/A   Clear
7:55 PM 66.2 °F - 57.2 °F 73% 29.58 in 10.0 mi South 12.7 mph - N/A   Clear
8:15 PM 66.2 °F - 57.2 °F 73% 29.57 in 10.0 mi South 15.0 mph 19.6 mph N/A   Clear
8:35 PM 66.2 °F - 57.2 °F 73% 29.57 in 10.0 mi South 12.7 mph - N/A   Clear
8:55 PM 64.4 °F - 57.2 °F 77% 29.57 in 10.0 mi South 13.8 mph - N/A   Clear
9:15 PM 62.6 °F - 57.2 °F 82% 29.58 in 10.0 mi SSW 10.4 mph - N/A   Clear
9:35 PM 62.6 °F - 57.2 °F 82% 29.59 in 10.0 mi SSW 13.8 mph - N/A   Clear
9:55 PM 64.4 °F - 57.2 °F 77% 29.58 in 10.0 mi SSW 19.6 mph - N/A   Mostly Cloudy
10:15 PM 64.4 °F - 59.0 °F 83% 29.57 in 10.0 mi SSW 19.6 mph 28.8 mph N/A   Mostly Cloudy
10:35 PM 62.6 °F - 59.0 °F 88% 29.56 in 10.0 mi SSW 17.3 mph - N/A   Partly Cloudy
10:55 PM 62.6 °F - 59.0 °F 88% 29.55 in 10.0 mi SSW 20.7 mph 27.6 mph N/A   Clear
11:15 PM 62.6 °F - 59.0 °F 88% 29.54 in 10.0 mi SSW 20.7 mph 26.5 mph N/A   Clear
11:35 PM 62.6 °F - 59.0 °F 88% 29.53 in 10.0 mi SSW 19.6 mph 26.5 mph N/A   Clear
11:55 PM 62.6 °F - 59.0 °F 88% 29.53 in 10.0 mi SSW 20.7 mph 27.6 mph N/A   Clear